Location: Haieshausen
(51.8387°N, 9.9720°E)
Time: 04:32:27
(UTC+00:00)

Cosmos 1900 - Pass Details

Date: 14 July 2020
Orbit: 682 x 740 km, 66.1° (Epoch: 10 August)

Event Time Altitude Azimuth Distance (km) Brightness Sun altitude
Exits shadow 02:29:33 - 219° (SW) 2,338 6.3 -6.3°
Reaches altitude 10° 02:30:02 10° 219° (SW) 2,153 6.1 -6.3°
Maximum altitude 02:34:56 87° 307° (NW) 713 4.4 -5.8°
Drops below altitude 10° 02:39:59 10° 40° (NE) 2,205 8.8 -5.2°
Sets 02:42:22 0° 40° (NE) 3,138 10.5 -5.0°
